Theta_e
310 310 311 311 311 311 310 310 310 309 309 310 310 309 308 308 307 307 307 307 306 306 306 306 305 305 304 304 304 304 304 304 304 304 304 304 303 303 303 303 303 302
311 310 311 311 311 311 311 310 310 309 310 310 310 310 309 308 308 308 307 307 306 306 306 306 306 305 304 304 304 304 304 304 304 304 303 303 303 303 303 303 303 303
312 311 312 312 312 311 311 311 310 309 310 310 310 310 310 309 308 308 308 307 307 306 306 306 306 305 304 304 304 304 304 304 304 303 303 303 303 303 303 303 303 303
313 313 313 313 313 312 311 311 310 309 309 309 310 311 310 309 309 308 308 307 307 307 306 306 306 305 304 304 304 304 304 304 303 303 303 303 302 302 303 302 302 302
316 315 314 313 314 313 312 311 310 309 309 309 310 311 310 310 309 309 308 308 307 307 306 306 306 305 304 304 304 304 304 304 303 303 302 302 302 302 302 302 302 302
318 317 316 314 314 314 312 311 310 309 309 309 310 310 310 310 309 309 308 308 307 307 307 306 306 305 304 304 304 304 304 303 303 302 302 302 302 302 302 302 302 301
319 319 318 316 315 314 313 312 311 310 309 310 310 311 310 310 309 309 309 308 307 306 306 306 306 304 304 304 304 304 303 303 302 302 302 302 302 301 301 301 301 301
320 320 320 319 318 316 314 312 311 310 310 311 311 311 311 311 310 309 309 308 307 307 306 306 305 304 304 304 304 304 303 303 302 302 301 301 301 301 300 300 300 300
319 320 320 321 320 318 316 313 312 311 311 311 312 313 312 312 311 310 309 309 308 307 306 306 305 304 303 303 304 304 303 303 302 302 301 301 300 300 300 299 299 299
319 320 320 321 321 320 318 315 314 313 312 312 312 313 314 313 312 310 309 309 308 307 306 306 305 303 303 303 303 303 303 302 302 301 301 300 299 299 299 298 298 298
319 319 319 320 321 321 320 318 316 315 314 313 313 313 314 314 312 310 309 309 308 307 306 305 304 303 303 303 303 303 302 302 302 301 300 299 299 299 298 298 298 297
321 320 319 320 320 321 320 320 319 318 317 315 313 313 314 314 312 311 310 309 308 307 306 305 303 302 302 302 302 302 302 301 301 300 300 299 299 299 298 298 298 297
322 322 321 321 321 321 320 320 320 320 320 318 315 314 313 313 312 311 310 310 308 307 305 304 302 302 302 301 301 301 301 301 300 300 299 299 299 299 299 298 297 296
322 323 323 322 322 321 320 320 320 320 319 318 318 316 314 313 312 311 311 310 308 306 304 303 302 302 301 301 301 301 301 300 300 299 299 299 299 299 297 296 295 294
320 322 323 323 323 322 322 321 320 319 318 316 317 317 315 312 312 312 311 309 307 306 304 302 302 301 301 301 301 301 300 300 300 300 300 299 298 297 295 295 295 295
313 316 319 321 323 323 323 321 319 318 318 316 316 316 315 313 312 311 310 308 307 305 303 302 302 302 302 301 301 300 300 300 300 300 299 297 296 295 294 295 295 295
307 308 311 315 318 321 322 322 320 319 318 317 315 314 313 313 312 311 310 308 306 304 302 302 302 302 302 302 301 301 300 300 299 298 297 295 294 294 294 295 295 295
305 305 306 307 311 314 318 321 321 320 319 317 315 313 313 312 311 310 309 307 305 303 303 302 302 303 303 302 301 301 300 299 297 296 294 294 293 293 294 294 294 294
305 304 304 304 306 309 314 318 320 321 319 317 315 314 313 312 311 310 308 306 304 303 303 303 303 303 303 302 302 301 299 297 295 294 293 293 293 293 293 293 293 294
303 303 303 304 304 307 312 316 319 320 319 316 315 314 312 311 310 308 306 304 303 303 303 304 304 303 303 302 301 299 298 296 295 294 293 292 292 292 292 293 293 294
303 303 303 304 305 308 312 315 317 319 318 316 315 313 312 311 309 307 304 303 303 303 304 304 304 303 302 301 299 297 296 295 294 293 292 292 292 292 293 294 294 294
303 303 303 303 305 309 313 315 317 317 317 316 314 312 311 310 307 305 304 304 304 304 304 304 303 302 300 298 297 296 295 294 293 292 292 292 293 293 294 294 295 295
305 305 304 304 306 310 313 315 316 317 316 315 313 312 311 308 306 304 305 305 305 305 304 302 301 299 298 297 296 295 294 293 292 292 293 293 294 294 294 295 295 295
306 307 307 306 308 311 313 314 315 316 316 314 313 311 309 307 306 305 305 305 304 303 302 300 298 297 296 296 295 293 292 292 292 292 293 293 294 294 295 295 295 295
307 308 308 308 309 311 313 314 315 315 314 313 311 309 307 306 306 306 305 304 303 301 299 297 296 296 295 294 293 292 292 292 292 292 293 293 294 294 295 295 295 295
307 309 309 309 310 311 312 314 314 313 313 311 309 307 305 305 306 305 303 302 300 298 296 295 295 294 293 292 291 291 291 291 292 292 293 293 293 294 294 294 294 294
Wind_Speed
22 20 18 16 14 12 11 11 10 9 8 8 8 8 8 9 8 7 6 5 4 4 4 6 8 9 9 9 8 8 6 5 5 5 6 6 6 6 7 8 9 9
23 22 21 19 18 15 14 13 11 10 9 9 9 9 10 11 10 9 8 7 6 5 5 6 8 9 10 9 9 9 8 7 8 7 7 7 6 6 7 7 9 10
25 24 23 22 20 18 16 14 13 12 11 11 11 12 12 12 11 10 10 9 8 7 7 7 8 9 10 9 9 10 9 9 10 10 10 10 10 10 10 10 10 10
25 25 24 23 21 19 18 16 15 14 13 13 13 13 14 14 13 12 11 11 10 9 9 9 9 11 11 10 10 11 11 11 11 12 12 12 12 13 13 13 13 13
25 25 24 23 22 20 20 19 18 17 16 15 14 15 16 15 14 13 13 12 11 11 10 10 11 12 12 12 12 12 12 12 13 13 13 14 14 14 15 15 16 16
26 26 25 24 23 22 21 21 20 19 18 17 16 17 17 17 16 15 14 14 13 13 12 11 12 13 13 12 13 13 13 13 14 14 15 15 15 16 16 16 17 17
28 27 26 25 24 24 23 23 22 22 21 20 19 19 19 18 17 16 16 15 15 14 13 13 13 13 13 13 13 13 13 13 14 15 15 16 16 16 17 17 18 18
33 31 29 28 27 26 25 25 25 25 23 22 22 21 20 20 19 18 17 17 16 16 15 14 14 14 14 14 13 13 13 13 14 15 15 16 16 17 17 18 19 19
33 34 33 31 30 29 28 27 27 26 26 25 24 22 22 21 20 19 18 18 18 18 17 16 16 16 15 15 14 14 14 14 15 15 16 16 17 17 18 19 20 21
33 34 35 36 35 32 30 29 29 28 27 27 25 24 23 22 21 20 20 21 20 19 18 18 17 17 16 15 15 15 15 16 16 16 17 17 18 19 20 21 22 23
34 34 35 37 39 37 34 32 31 30 29 29 28 26 25 24 22 22 22 22 20 19 19 19 18 17 16 16 15 16 16 17 17 18 19 19 20 21 22 23 25 25
36 37 39 41 41 38 35 35 35 35 33 31 30 28 26 25 24 23 23 22 21 20 19 19 18 17 16 15 15 16 17 17 19 19 20 21 22 24 25 26 27 28
34 36 39 41 40 37 36 37 38 40 39 36 32 29 27 26 25 24 23 22 21 20 19 19 18 16 15 15 16 17 18 19 20 21 22 23 25 26 28 29 29 29
29 31 33 35 36 37 39 41 41 43 42 37 33 30 28 27 25 24 23 22 21 21 20 19 17 15 15 15 16 18 19 20 22 23 25 26 28 29 30 30 30 29
21 25 28 30 32 34 38 44 45 42 37 32 31 30 28 26 24 23 22 22 21 21 21 19 17 15 16 16 18 19 20 22 23 25 27 29 30 31 30 30 29 29
16 19 22 25 29 32 37 42 42 37 32 30 31 30 27 25 24 23 23 22 22 22 21 19 17 16 17 18 19 20 22 23 25 26 28 30 31 31 30 30 30 30
17 18 20 22 26 30 34 37 35 33 32 32 31 29 25 25 24 24 23 23 23 22 20 18 17 17 18 19 20 21 23 24 26 28 29 30 30 30 31 31 31 32
20 20 21 23 26 27 28 30 30 29 28 30 33 31 28 27 27 26 25 24 23 21 19 18 17 17 18 19 20 22 23 25 27 28 29 29 30 31 32 32 33 33
23 23 23 24 26 27 26 26 27 27 26 29 34 33 30 29 28 27 26 24 22 20 18 17 17 17 18 19 21 23 24 26 27 29 30 30 31 32 32 33 34 35
25 25 25 25 26 28 28 26 26 26 26 30 35 34 32 30 28 26 24 22 20 18 17 17 17 17 18 20 22 24 25 27 29 30 31 31 32 33 34 34 35 35
25 25 25 27 27 28 29 27 26 26 26 32 37 35 32 29 27 25 23 21 19 18 17 17 17 18 19 21 22 24 26 28 30 31 32 32 33 34 34 35 34 34
24 24 25 27 29 29 29 28 26 27 30 36 37 33 30 28 26 23 21 19 18 17 17 17 17 18 19 21 22 24 26 28 30 31 32 34 34 34 34 34 34 34
24 23 25 27 29 29 28 28 27 30 36 39 36 32 30 27 24 21 18 17 17 17 17 16 17 18 18 20 21 24 26 28 30 32 34 35 35 34 34 33 33 33
23 23 24 26 27 27 26 26 28 32 38 38 35 31 28 24 22 20 18 17 17 16 16 15 16 16 17 19 22 24 26 28 30 33 34 35 35 35 34 34 33 32
22 22 22 23 24 24 23 25 28 34 39 37 32 29 25 23 21 20 18 16 16 15 15 14 14 15 17 20 21 22 24 27 30 33 34 35 35 35 35 34 34 33
22 21 21 21 21 21 21 24 29 35 37 31 25 23 21 21 20 18 16 15 14 13 12 12 13 15 16 18 19 21 25 27 30 32 34 35 36 36 36 36 35 34
Wind_Direction
224 225 228 233 237 236 230 226 223 218 218 226 232 238 240 242 245 244 245 250 261 285 313 334 342 341 335 332 331 328 324 324 329 330 325 324 324 321 317 311 305 298
228 228 229 233 237 238 235 232 231 227 225 228 233 237 240 244 248 250 252 255 263 277 298 318 328 328 325 321 319 317 320 330 337 339 337 334 330 327 323 320 318 314
232 230 231 232 234 236 236 235 234 232 230 232 234 237 241 244 247 250 254 258 265 275 289 304 313 314 311 308 308 309 315 327 334 338 341 340 338 335 331 326 323 318
235 232 232 232 233 235 236 236 236 233 230 233 235 238 243 245 245 246 251 257 263 271 283 296 305 306 303 300 302 304 309 316 322 327 332 332 333 334 332 330 327 324
239 236 233 232 232 233 235 235 235 232 231 232 235 239 244 246 247 247 249 253 259 267 277 290 297 298 298 299 301 305 311 316 318 320 321 322 323 323 324 324 323 323
240 239 236 234 234 233 235 236 234 233 232 232 233 238 242 245 247 247 249 251 255 262 271 281 287 289 290 294 298 304 312 317 319 321 321 320 319 317 318 317 315 317
244 242 239 237 236 236 237 237 236 235 234 234 234 236 240 242 243 246 248 252 255 259 265 272 278 280 282 284 289 297 306 312 315 319 320 320 320 320 318 317 315 314
249 248 245 242 240 239 238 238 237 237 237 238 238 238 240 241 242 244 247 250 254 258 263 270 274 273 273 276 281 289 298 304 307 311 314 316 317 319 318 318 317 315
253 252 249 247 245 242 240 239 239 240 240 241 242 242 244 243 242 242 245 247 251 256 263 270 272 269 268 271 278 285 291 297 301 304 308 309 311 312 313 314 314 314
255 256 254 251 248 246 244 242 241 242 243 243 244 245 246 246 243 240 241 244 248 254 261 268 269 266 266 270 276 283 288 293 298 300 301 303 304 306 308 309 310 311
251 255 258 256 251 247 247 247 244 244 243 243 243 244 246 246 243 239 240 243 247 253 259 263 262 260 263 270 276 282 287 291 293 294 296 298 301 304 307 309 310 310
248 249 254 257 255 252 253 254 251 248 245 241 240 241 243 244 241 239 240 243 248 253 257 258 257 257 263 271 278 283 287 289 290 291 294 298 302 305 307 309 311 311
259 255 254 257 258 256 256 257 255 252 248 242 237 236 238 241 239 237 239 243 248 252 254 254 254 260 268 276 282 286 289 290 292 296 299 303 305 307 309 310 311 311
274 270 266 263 261 256 256 257 255 251 247 242 238 234 234 237 236 235 237 241 245 248 249 250 255 265 275 282 287 290 291 293 297 301 303 305 307 308 310 310 310 309
286 282 278 275 270 263 258 256 253 249 246 243 240 236 233 232 231 231 235 239 242 244 245 249 258 269 279 287 291 292 294 297 300 303 304 306 307 308 309 309 309 309
296 292 288 283 278 271 263 258 256 255 253 248 240 235 231 227 226 228 233 237 239 241 244 249 260 272 282 289 292 294 297 299 301 303 305 306 307 307 308 308 308 308
297 296 293 288 282 277 272 270 267 264 260 248 233 227 227 226 225 227 230 234 238 240 244 252 262 273 284 290 294 297 298 299 301 303 304 305 305 306 306 307 307 307
293 293 291 289 286 283 282 279 273 265 255 239 225 222 224 225 224 224 226 230 235 239 247 255 264 275 285 291 294 295 296 299 301 303 303 303 303 304 305 306 306 306
289 288 286 284 285 285 284 279 270 261 250 232 223 221 222 222 222 220 221 225 230 238 249 257 266 276 283 288 290 292 295 298 301 302 303 303 303 303 304 305 306 306
288 285 282 279 278 279 279 275 266 259 247 228 221 220 219 219 218 216 217 222 229 238 248 256 265 274 281 285 287 290 294 297 300 303 302 302 303 304 305 306 306 306
286 283 279 275 273 273 274 270 262 255 240 224 220 220 218 216 215 214 217 223 230 237 245 253 263 272 278 282 286 290 295 298 301 302 302 303 304 306 307 307 307 306
283 277 272 269 268 270 269 264 258 248 232 220 218 217 214 212 213 215 219 223 228 235 243 252 263 272 277 282 287 293 298 301 302 303 304 306 308 309 309 308 307 306
282 273 265 261 262 266 266 261 256 245 227 216 213 210 207 206 208 209 213 220 227 236 245 255 265 273 279 285 292 297 300 303 305 307 308 310 311 311 311 309 308 308
279 272 265 258 259 264 263 258 253 241 226 215 210 205 200 198 201 205 211 220 229 238 250 260 268 276 284 290 295 300 303 307 310 312 313 313 313 312 311 311 310 309
274 270 263 256 256 259 256 253 246 231 217 209 203 198 194 195 200 206 212 221 232 244 254 263 273 282 288 293 299 304 308 312 315 316 316 315 314 313 313 313 313 313
270 265 257 249 248 250 250 250 239 220 205 198 193 191 192 195 200 207 214 223 235 247 257 268 279 286 292 299 306 311 314 317 319 319 319 318 317 317 316 316 317 317